"Sample Date","Sample Time","Sample Value","Units","Flow Rate","Laser Status","Micron Size 0","Counts/Channel 0","Micron Size 1","Counts/Channel 1","Micron Size 2","Counts/Channel 2","Micron Size 3","Counts/Channel 3","Micron Size 4","Counts/Channel 4","Micron Size 5","Counts/Channel 5","Micron Size 6","Counts/Channel 6","Micron Size 7","Counts/Channel 7","Micron Size 8","Counts/Channel 8","Micron Size 9","Counts/Channel 9","Micron Size 10","Counts/Channel 10","Micron Size 11","Counts/Channel 11","Micron Size 12","Counts/Channel 12","Micron Size 13","Counts/Channel 13","Micron Size 14","Counts/Channel 14","Micron Size 15","Counts/Channel 15","Micron Size 16","Counts/Channel 16","Micron Size 17","Counts/Channel 17","Micron Size 18","Counts/Channel 18","Micron Size 19","Counts/Channel 19","Micron Size 20","Counts/Channel 20","Micron Size 21","Counts/Channel 21","Micron Size 22","Counts/Channel 22","Micron Size 23","Counts/Channel 23","Micron Size 24","Counts/Channel 24","Micron Size 25","Counts/Channel 25","Micron Size 26","Counts/Channel 26","Micron Size 27","Counts/Channel 27","Micron Size 28","Counts/Channel 28","Micron Size 29","Counts/Channel 29","Micron Size 30","Counts/Channel 30","Micron Size 31","Counts/Channel 31"
"03/03/08","19:00:04",55949.000,"cc",28291.930,1,0.100,50322.000,0.200,3486.000,0.300,890.000,0.500,875.000,1.000,376.000,5.000,0
"03/03/08","19:00:10",56205.000,"cc",28306.211,1,0.100,49837.000,0.200,3867.000,0.300,1071.000,0.500,996.000,1.000,434.000,5.000,0
"03/03/08","19:00:16",54907.000,"cc",28315.512,1,0.100,49605.000,0.200,3389.000,0.300,799.000,0.500,771.000,1.000,343.000,5.000,0
"03/03/08","19:00:22",54229.000,"cc",28322.760,1,0.100,49397.000,0.200,3153.000,0.300,667.000,0.500,713.000,1.000,299.000,5.000,0
"03/03/08","19:00:28",54454.000,"cc",28296.305,1,0.100,49165.000,0.200,3315.000,0.300,759.000,0.500,866.000,1.000,349.000,5.000,0
"03/03/08","19:00:34",55105.000,"cc",28344.869,1,0.100,49613.000,0.200,3451.000,0.300,812.000,0.500,856.000,1.000,373.000,5.000,0
"03/03/08","19:00:40",55021.000,"cc",28359.822,1,0.100,49652.000,0.200,3358.000,0.300,798.000,0.500,843.000,1.000,370.000,5.000,0
"03/03/08","19:00:46",54233.000,"cc",28317.783,1,0.100,48934.000,0.200,3345.000,0.300,779.000,0.500,855.000,1.000,320.000,5.000,0
"03/03/08","19:00:52",53718.000,"cc",28319.361,1,0.100,48636.000,0.200,3187.000,0.300,732.000,0.500,803.000,1.000,360.000,5.000,0
"03/03/08","19:00:58",55973.000,"cc",28298.336,1,0.100,50355.000,0.200,3603.000,0.300,852.000,0.500,811.000,1.000,352.000,5.000,0
"03/03/08","19:01:04",54383.000,"cc",28352.096,1,0.100,49060.000,0.200,3343.000,0.300,823.000,0.500,808.000,1.000,349.000,5.000,0
"03/03/08","19:01:10",54635.000,"cc",28303.231,1,0.100,48807.000,0.200,3590.000,0.300,926.000,0.500,951.000,1.000,361.000,5.000,0
"03/03/08","19:01:16",54287.000,"cc",28321.777,1,0.100,48958.000,0.200,3346.000,0.300,792.000,0.500,849.000,1.000,342.000,5.000,0
"03/03/08","19:01:22",56951.000,"cc",28262.057,1,0.100,50101.000,0.200,4066.000,0.300,1262.000,0.500,1114.000,1.000,408.000,5.000,0
"03/03/08","19:01:28",58587.000,"cc",28359.662,1,0.100,51680.000,0.200,4172.000,0.300,1226.000,0.500,1083.000,1.000,426.000,5.000,0
"03/03/08","19:01:34",57530.000,"cc",28350.000,1,0.100,50379.000,0.200,4157.000,0.300,1338.000,0.500,1199.000,1.000,457.000,5.000,0
"03/03/08","19:01:40",58186.000,"cc",28309.049,1,0.100,51283.000,0.200,4081.000,0.300,1237.000,0.500,1155.000,1.000,430.000,5.000,0
"03/03/08","19:01:46",55763.000,"cc",28218.211,1,0.100,49777.000,0.200,3600.000,0.300,1008.000,0.500,993.000,1.000,385.000,5.000,0
"03/03/08","19:01:52",56530.000,"cc",28334.098,1,0.100,50753.000,0.200,3678.000,0.300,865.000,0.500,858.000,1.000,376.000,5.000,0
"03/03/08","19:01:58",56547.000,"cc",28348.053,1,0.100,49707.000,0.200,3947.000,0.300,1177.000,0.500,1229.000,1.000,487.000,5.000,0
"03/03/08","19:02:04",57917.000,"cc",28315.514,1,0.100,50833.000,0.200,4131.000,0.300,1253.000,0.500,1227.000,1.000,473.000,5.000,0
"03/03/08","19:02:10",56130.000,"cc",28349.830,1,0.100,49985.000,0.200,3693.000,0.300,1032.000,0.500,1006.000,1.000,414.000,5.000,0
"03/03/08","19:02:16",54210.000,"cc",28301.377,1,0.100,49230.000,0.200,3161.000,0.300,686.000,0.500,806.000,1.000,327.000,5.000,0
"03/03/08","19:02:22",54607.000,"cc",28291.986,1,0.100,49402.000,0.200,3308.000,0.300,746.000,0.500,814.000,1.000,337.000,5.000,0
"03/03/08","19:02:28",53670.000,"cc",28328.848,1,0.100,48657.000,0.200,3167.000,0.300,718.000,0.500,793.000,1.000,335.000,5.000,0
"03/03/08","19:02:34",55740.000,"cc",28282.002,1,0.100,50424.000,0.200,3395.000,0.300,763.000,0.500,790.000,1.000,367.000,5.000,1.000
"03/03/08","19:02:40",54172.000,"cc",28304.957,1,0.100,49038.000,0.200,3269.000,0.300,750.000,0.500,800.000,1.000,315.000,5.000,0
"03/03/08","19:02:46",54742.000,"cc",28318.623,1,0.100,49532.000,0.200,3368.000,0.300,711.000,0.500,778.000,1.000,353.000,5.000,0
"03/03/08","19:02:52",53904.000,"cc",28317.445,1,0.100,49073.000,0.200,3029.000,0.300,710.000,0.500,771.000,1.000,321.000,5.000,0
"03/03/08","19:02:58",53745.000,"cc",28326.791,1,0.100,48887.000,0.200,3107.000,0.300,643.000,0.500,755.000,1.000,353.000,5.000,0
"03/03/08","19:03:04",54752.000,"cc",28338.227,1,0.100,49596.000,0.200,3238.000,0.300,755.000,0.500,822.000,1.000,341.000,5.000,0
"03/03/08","19:03:10",54704.000,"cc",28328.979,1,0.100,49542.000,0.200,3281.000,0.300,738.000,0.500,795.000,1.000,348.000,5.000,0
"03/03/08","19:03:16",54185.000,"cc",28297.674,1,0.100,49177.000,0.200,3159.000,0.300,732.000,0.500,776.000,1.000,341.000,5.000,0
"03/03/08","19:03:22",54889.000,"cc",28335.322,1,0.100,49596.000,0.200,3357.000,0.300,802.000,0.500,806.000,1.000,328.000,5.000,0
"03/03/08","19:03:28",54100.000,"cc",28338.520,1,0.100,49110.000,0.200,3230.000,0.300,697.000,0.500,727.000,1.000,336.000,5.000,0
"03/03/08","19:03:34",54285.000,"cc",28317.172,1,0.100,49322.000,0.200,3180.000,0.300,708.000,0.500,759.000,1.000,316.000,5.000,0
"03/03/08","19:03:40",55353.000,"cc",28358.365,1,0.100,49419.000,0.200,3668.000,0.300,953.000,0.500,973.000,1.000,340.000,5.000,0
"03/03/08","19:03:46",54552.000,"cc",28278.365,1,0.100,49228.000,0.200,3294.000,0.300,836.000,0.500,822.000,1.000,372.000,5.000,0
"03/03/08","19:03:52",53975.000,"cc",28307.637,1,0.100,48601.000,0.200,3478.000,0.300,761.000,0.500,794.000,1.000,341.000,5.000,0
"03/03/08","19:03:58",55725.000,"cc",28363.570,1,0.100,49314.000,0.200,3790.000,0.300,1113.000,0.500,1055.000,1.000,453.000,5.000,0
"03/03/08","19:04:04",56682.000,"cc",28308.936,1,0.100,49900.000,0.200,4012.000,0.300,1169.000,0.500,1143.000,1.000,458.000,5.000,0
"03/03/08","19:04:10",53580.000,"cc",28251.615,1,0.100,48494.000,0.200,3207.000,0.300,700.000,0.500,844.000,1.000,335.000,5.000,0
"03/03/08","19:04:16",54218.000,"cc",28312.891,1,0.100,48876.000,0.200,3229.000,0.300,846.000,0.500,902.000,1.000,365.000,5.000,0
"03/03/08","19:04:22",55460.000,"cc",28316.361,1,0.100,49708.000,0.200,3427.000,0.300,964.000,0.500,966.000,1.000,395.000,5.000,0
"03/03/08","19:04:28",55203.000,"cc",28304.248,1,0.100,49727.000,0.200,3336.000,0.300,847.000,0.500,936.000,1.000,357.000,5.000,0
"03/03/08","19:04:34",55315.000,"cc",28372.982,1,0.100,49744.000,0.200,3527.000,0.300,873.000,0.500,832.000,1.000,339.000,5.000,0
"03/03/08","19:04:40",54438.000,"cc",28293.357,1,0.100,49123.000,0.200,3365.000,0.300,776.000,0.500,788.000,1.000,386.000,5.000,0
"03/03/08","19:04:46",66537.000,"cc",28303.602,1,0.100,59348.000,0.200,4907.000,0.300,1012.000,0.500,916.000,1.000,354.000,5.000,0
"03/03/08","19:04:52",57704.000,"cc",28326.869,1,0.100,52170.000,0.200,3598.000,0.300,787.000,0.500,821.000,1.000,328.000,5.000,0
"03/03/08","19:04:58",81548.000,"cc",28363.961,1,0.100,72826.000,0.200,6596.000,0.300,964.000,0.500,829.000,1.000,333.000,5.000,0
"03/03/08","19:05:04",59351.000,"cc",28344.291,1,0.100,53621.000,0.200,3766.000,0.300,790.000,0.500,834.000,1.000,340.000,5.000,0
"03/03/08","19:05:10",56710.000,"cc",28311.434,1,0.100,50730.000,0.200,3709.000,0.300,975.000,0.500,918.000,1.000,378.000,5.000,0
"03/03/08","19:05:16",54775.000,"cc",28305.982,1,0.100,49619.000,0.200,3248.000,0.300,769.000,0.500,816.000,1.000,323.000,5.000,0
"03/03/08","19:05:22",54637.000,"cc",28327.699,1,0.100,49636.000,0.200,3175.000,0.300,684.000,0.500,796.000,1.000,346.000,5.000,0
"03/03/08","19:05:28",55153.000,"cc",28252.367,1,0.100,50132.000,0.200,3229.000,0.300,690.000,0.500,763.000,1.000,339.000,5.000,0
"03/03/08","19:05:34",77657.000,"cc",28332.840,1,0.100,69700.000,0.200,5987.000,0.300,833.000,0.500,820.000,1.000,317.000,5.000,0
"03/03/08","19:05:40",82575.000,"cc",28335.229,1,0.100,73931.000,0.200,6637.000,0.300,929.000,0.500,758.000,1.000,320.000,5.000,0
"03/03/08","19:05:46",81064.000,"cc",28338.598,1,0.100,72208.000,0.200,6586.000,0.300,1029.000,0.500,869.000,1.000,372.000,5.000,0
"03/03/08","19:05:52",54969.000,"cc",28310.484,1,0.100,49605.000,0.200,3392.000,0.300,765.000,0.500,845.000,1.000,362.000,5.000,0
"03/03/08","19:05:58",58800.000,"cc",28277.065,1,0.100,52743.000,0.200,3912.000,0.300,925.000,0.500,867.000,1.000,353.000,5.000,0
"03/03/08","19:06:04",55742.000,"cc",28324.443,1,0.100,50359.000,0.200,3515.000,0.300,732.000,0.500,799.000,1.000,337.000,5.000,0
"03/03/08","19:06:10",77320.000,"cc",28364.508,1,0.100,69356.000,0.200,5994.000,0.300,840.000,0.500,806.000,1.000,324.000,5.000,0
"03/03/08","19:06:16",69400.000,"cc",28264.283,1,0.100,62435.000,0.200,5083.000,0.300,781.000,0.500,781.000,1.000,320.000,5.000,0
"03/03/08","19:06:22",75160.000,"cc",28297.516,1,0.100,67176.000,0.200,5850.000,0.300,944.000,0.500,842.000,1.000,348.000,5.000,0
"03/03/08","19:06:28",100121.000,"cc",28305.445,1,0.100,89106.000,0.200,8937.000,0.300,945.000,0.500,798.000,1.000,335.000,5.000,0
"03/03/08","19:06:34",62241.000,"cc",28285.023,1,0.100,56306.000,0.200,4139.000,0.300,746.000,0.500,719.000,1.000,331.000,5.000,0
"03/03/08","19:06:40",68140.000,"cc",28337.508,1,0.100,61335.000,0.200,4890.000,0.300,819.000,0.500,758.000,1.000,338.000,5.000,0
"03/03/08","19:06:46",80611.000,"cc",28317.182,1,0.100,72200.000,0.200,6412.000,0.300,910.000,0.500,745.000,1.000,344.000,5.000,0
"03/03/08","19:06:52",59924.000,"cc",28381.531,1,0.100,53975.000,0.200,4016.000,0.300,770.000,0.500,810.000,1.000,353.000,5.000,0
"03/03/08","19:06:58",65420.000,"cc",28348.373,1,0.100,58029.000,0.200,4824.000,0.300,1065.000,0.500,1077.000,1.000,425.000,5.000,0
"03/03/08","19:07:04",57306.000,"cc",28284.147,1,0.100,51055.000,0.200,3796.000,0.300,1031.000,0.500,997.000,1.000,427.000,5.000,0
"03/03/08","19:07:10",56827.000,"cc",28306.053,1,0.100,50606.000,0.200,3762.000,0.300,1002.000,0.500,1033.000,1.000,424.000,5.000,0
"03/03/08","19:07:16",68462.000,"cc",28299.156,1,0.100,61299.000,0.200,4950.000,0.300,931.000,0.500,891.000,1.000,390.000,5.000,1.000
"03/03/08","19:07:22",64855.000,"cc",28323.057,1,0.100,58437.000,0.200,4455.000,0.300,781.000,0.500,837.000,1.000,345.000,5.000,0
"03/03/08","19:07:28",60368.000,"cc",28313.582,1,0.100,54355.000,0.200,3967.000,0.300,805.000,0.500,874.000,1.000,367.000,5.000,0
"03/03/08","19:07:34",74915.000,"cc",28345.731,1,0.100,67166.000,0.200,5719.000,0.300,836.000,0.500,847.000,1.000,347.000,5.000,0
"03/03/08","19:07:40",62262.000,"cc",28293.793,1,0.100,56061.000,0.200,4280.000,0.300,768.000,0.500,811.000,1.000,342.000,5.000,0
"03/03/08","19:07:46",58162.000,"cc",28348.014,1,0.100,52220.000,0.200,3791.000,0.300,883.000,0.500,887.000,1.000,381.000,5.000,0
"03/03/08","19:07:52",68102.000,"cc",28335.182,1,0.100,61379.000,0.200,4846.000,0.300,754.000,0.500,791.000,1.000,332.000,5.000,0
"03/03/08","19:07:58",54090.000,"cc",28342.016,1,0.100,49100.000,0.200,3222.000,0.300,701.000,0.500,728.000,1.000,339.000,5.000,0
"03/03/08","19:08:04",56226.000,"cc",28264.066,1,0.100,50381.000,0.200,3597.000,0.300,885.000,0.500,985.000,1.000,378.000,5.000,0
"03/03/08","19:08:10",56924.000,"cc",28325.272,1,0.100,51312.000,0.200,3615.000,0.300,834.000,0.500,785.000,1.000,378.000,5.000,0
"03/03/08","19:08:16",63718.000,"cc",28299.096,1,0.100,56940.000,0.200,4492.000,0.300,1002.000,0.500,944.000,1.000,340.000,5.000,0
"03/03/08","19:08:22",62153.000,"cc",28294.775,1,0.100,54648.000,0.200,4546.000,0.300,1313.000,0.500,1212.000,1.000,434.000,5.000,0
"03/03/08","19:08:28",54434.000,"cc",28365.570,1,0.100,48702.000,0.200,3438.000,0.300,884.000,0.500,989.000,1.000,421.000,5.000,0
"03/03/08","19:08:34",55643.000,"cc",28319.652,1,0.100,49653.000,0.200,3587.000,0.300,1019.000,0.500,985.000,1.000,399.000,5.000,0
"03/03/08","19:08:40",70217.000,"cc",28297.813,1,0.100,62320.000,0.200,5446.000,0.300,1071.000,0.500,981.000,1.000,399.000,5.000,0
"03/03/08","19:08:46",65825.000,"cc",28298.365,1,0.100,58875.000,0.200,4712.000,0.300,923.000,0.500,919.000,1.000,396.000,5.000,0
"03/03/08","19:08:52",78137.000,"cc",28398.168,1,0.100,69882.000,0.200,6113.000,0.300,953.000,0.500,855.000,1.000,334.000,5.000,0
"03/03/08","19:08:58",54208.000,"cc",28346.986,1,0.100,48726.000,0.200,3421.000,0.300,860.000,0.500,838.000,1.000,363.000,5.000,0
"03/03/08","19:09:04",54623.000,"cc",28294.180,1,0.100,49162.000,0.200,3418.000,0.300,794.000,0.500,886.000,1.000,363.000,5.000,0
"03/03/08","19:09:10",54714.000,"cc",28307.440,1,0.100,49696.000,0.200,3253.000,0.300,670.000,0.500,731.000,1.000,364.000,5.000,0
"03/03/08","19:09:16",54294.000,"cc",28303.398,1,0.100,48900.000,0.200,3335.000,0.300,795.000,0.500,886.000,1.000,378.000,5.000,0
"03/03/08","19:09:22",53440.000,"cc",28276.900,1,0.100,48510.000,0.200,3135.000,0.300,705.000,0.500,752.000,1.000,338.000,5.000,0
"03/03/08","19:09:28",52615.000,"cc",28351.258,1,0.100,47805.000,0.200,3064.000,0.300,690.000,0.500,709.000,1.000,347.000,5.000,0
"03/03/08","19:09:34",54873.000,"cc",28328.051,1,0.100,49763.000,0.200,3242.000,0.300,699.000,0.500,836.000,1.000,333.000,5.000,0
"03/03/08","19:09:40",61076.000,"cc",28344.459,1,0.100,55096.000,0.200,4018.000,0.300,780.000,0.500,840.000,1.000,342.000,5.000,0
"03/03/08","19:09:46",57042.000,"cc",28298.461,1,0.100,51498.000,0.200,3589.000,0.300,778.000,0.500,821.000,1.000,356.000,5.000,0
"03/03/08","19:09:52",56988.000,"cc",28305.756,1,0.100,51090.000,0.200,3781.000,0.300,885.000,0.500,846.000,1.000,386.000,5.000,0
"03/03/08","19:09:58",55324.000,"cc",28305.127,1,0.100,49208.000,0.200,3600.000,0.300,1021.000,0.500,1045.000,1.000,450.000,5.000,0
"03/03/08","19:10:04",53736.000,"cc",28306.641,1,0.100,48686.000,0.200,3110.000,0.300,765.000,0.500,848.000,1.000,327.000,5.000,0
"03/03/08","19:10:10",55069.000,"cc",28313.084,1,0.100,49637.000,0.200,3443.000,0.300,790.000,0.500,844.000,1.000,355.000,5.000,0
"03/03/08","19:10:16",55557.000,"cc",28304.106,1,0.100,49355.000,0.200,3642.000,0.300,1086.000,0.500,1031.000,1.000,443.000,5.000,0
"03/03/08","19:10:22",54202.000,"cc",28349.898,1,0.100,48872.000,0.200,3266.000,0.300,805.000,0.500,863.000,1.000,396.000,5.000,0
"03/03/08","19:10:28",53242.000,"cc",28377.516,1,0.100,48318.000,0.200,3092.000,0.300,721.000,0.500,781.000,1.000,330.000,5.000,0
"03/03/08","19:10:34",55897.000,"cc",28247.566,1,0.100,49454.000,0.200,3864.000,0.300,1117.000,0.500,1059.000,1.000,403.000,5.000,0
"03/03/08","19:10:40",54469.000,"cc",28251.498,1,0.100,48517.000,0.200,3548.000,0.300,976.000,0.500,1026.000,1.000,402.000,5.000,0
"03/03/08","19:10:46",54993.000,"cc",28362.293,1,0.100,48649.000,0.200,3733.000,0.300,1095.000,0.500,1085.000,1.000,431.000,5.000,0
"03/03/08","19:10:52",53686.000,"cc",28343.119,1,0.100,48292.000,0.200,3274.000,0.300,848.000,0.500,896.000,1.000,376.000,5.000,0
"03/03/08","19:10:58",54302.000,"cc",28335.619,1,0.100,48616.000,0.200,3500.000,0.300,907.000,0.500,888.000,1.000,391.000,5.000,0
"03/03/08","19:11:04",53590.000,"cc",28318.773,1,0.100,48537.000,0.200,3205.000,0.300,720.000,0.500,811.000,1.000,317.000,5.000,0
"03/03/08","19:11:10",54018.000,"cc",28262.426,1,0.100,48357.000,0.200,3408.000,0.300,902.000,0.500,936.000,1.000,415.000,5.000,0
"03/03/08","19:11:16",54770.000,"cc",28349.434,1,0.100,48979.000,0.200,3426.000,0.300,955.000,0.500,1003.000,1.000,407.000,5.000,0
"03/03/08","19:11:22",55257.000,"cc",28344.930,1,0.100,48762.000,0.200,3716.000,0.300,1147.000,0.500,1137.000,1.000,495.000,5.000,0
"03/03/08","19:11:28",53478.000,"cc",28310.027,1,0.100,48008.000,0.200,3358.000,0.300,830.000,0.500,917.000,1.000,365.000,5.000,0
"03/03/08","19:11:34",53030.000,"cc",28266.098,1,0.100,48133.000,0.200,3118.000,0.300,670.000,0.500,764.000,1.000,345.000,5.000,0
"03/03/08","19:11:40",53299.000,"cc",28437.330,1,0.100,48123.000,0.200,3205.000,0.300,770.000,0.500,842.000,1.000,359.000,5.000,0
"03/03/08","19:11:46",54593.000,"cc",28181.023,1,0.100,48449.000,0.200,3618.000,0.300,1036.000,0.500,1055.000,1.000,435.000,5.000,0
"03/03/08","19:11:52",53520.000,"cc",28297.041,1,0.100,48193.000,0.200,3251.000,0.300,775.000,0.500,929.000,1.000,372.000,5.000,0
"03/03/08","19:11:58",52969.000,"cc",28329.861,1,0.100,47905.000,0.200,3205.000,0.300,716.000,0.500,791.000,1.000,352.000,5.000,0
"03/03/08","19:12:04",55324.000,"cc",28355.631,1,0.100,49079.000,0.200,3628.000,0.300,1101.000,0.500,1091.000,1.000,425.000,5.000,0
"03/03/08","19:12:10",53434.000,"cc",28316.953,1,0.100,48121.000,0.200,3217.000,0.300,818.000,0.500,882.000,1.000,396.000,5.000,0
"03/03/08","19:12:16",54632.000,"cc",28334.160,1,0.100,48436.000,0.200,3637.000,0.300,1062.000,0.500,1055.000,1.000,442.000,5.000,0
"03/03/08","19:12:22",58569.000,"cc",28266.971,1,0.100,50473.000,0.200,4439.000,0.300,1671.000,0.500,1450.000,1.000,536.000,5.000,0
"03/03/08","19:12:28",58069.000,"cc",28327.813,1,0.100,50453.000,0.200,4291.000,0.300,1448.000,0.500,1367.000,1.000,510.000,5.000,0
"03/03/08","19:12:34",55078.000,"cc",28304.492,1,0.100,48825.000,0.200,3722.000,0.300,1042.000,0.500,1059.000,1.000,430.000,5.000,0
"03/03/08","19:12:40",54340.000,"cc",28373.525,1,0.100,48800.000,0.200,3412.000,0.300,829.000,0.500,914.000,1.000,385.000,5.000,0
"03/03/08","19:12:46",56325.000,"cc",28307.719,1,0.100,49285.000,0.200,3834.000,0.300,1370.000,0.500,1279.000,1.000,557.000,5.000,0
"03/03/08","19:12:52",54894.000,"cc",28347.986,1,0.100,48568.000,0.200,3708.000,0.300,1069.000,0.500,1119.000,1.000,430.000,5.000,0
"03/03/08","19:12:58",53773.000,"cc",28272.660,1,0.100,48616.000,0.200,3192.000,0.300,775.000,0.500,828.000,1.000,362.000,5.000,0
"03/03/08","19:13:04",56105.000,"cc",28277.107,1,0.100,50477.000,0.200,3499.000,0.300,878.000,0.500,862.000,1.000,389.000,5.000,0
"03/03/08","19:13:10",58620.000,"cc",28308.828,1,0.100,52021.000,0.200,4079.000,0.300,1041.000,0.500,1048.000,1.000,431.000,5.000,0
"03/03/08","19:13:16",65107.000,"cc",28334.041,1,0.100,57973.000,0.200,4705.000,0.300,1023.000,0.500,982.000,1.000,424.000,5.000,0
"03/03/08","19:13:22",58474.000,"cc",28326.195,1,0.100,52323.000,0.200,3821.000,0.300,948.000,0.500,993.000,1.000,389.000,5.000,0
"03/03/08","19:13:28",56025.000,"cc",28260.889,1,0.100,50196.000,0.200,3520.000,0.300,974.000,0.500,977.000,1.000,358.000,5.000,0
"03/03/08","19:13:34",69466.000,"cc",28289.383,1,0.100,61931.000,0.200,5081.000,0.300,1039.000,0.500,1011.000,1.000,404.000,5.000,0
"03/03/08","19:13:40",56192.000,"cc",28315.293,1,0.100,50696.000,0.200,3561.000,0.300,765.000,0.500,815.000,1.000,355.000,5.000,0
"03/03/08","19:13:46",65430.000,"cc",28459.922,1,0.100,58566.000,0.200,4656.000,0.300,965.000,0.500,885.000,1.000,358.000,5.000,0
"03/03/08","19:13:52",55403.000,"cc",28266.590,1,0.100,48945.000,0.200,3813.000,0.300,1150.000,0.500,1058.000,1.000,437.000,5.000,0
"03/03/08","19:13:58",67819.000,"cc",28306.686,1,0.100,60466.000,0.200,4972.000,0.300,1036.000,0.500,953.000,1.000,392.000,5.000,0
"03/03/08","19:14:04",57625.000,"cc",28279.170,1,0.100,51315.000,0.200,3841.000,0.300,1040.000,0.500,1023.000,1.000,406.000,5.000,0
"03/03/08","19:14:10",63085.000,"cc",28334.682,1,0.100,55736.000,0.200,4622.000,0.300,1130.000,0.500,1125.000,1.000,472.000,5.000,0
"03/03/08","19:14:16",56000.000,"cc",28328.906,1,0.100,49463.000,0.200,3841.000,0.300,1105.000,0.500,1108.000,1.000,483.000,5.000,0
"03/03/08","19:14:22",59515.000,"cc",28335.635,1,0.100,52152.000,0.200,4324.000,0.300,1360.000,0.500,1276.000,1.000,403.000,5.000,0
"03/03/08","19:14:28",57720.000,"cc",28308.846,1,0.100,50466.000,0.200,4181.000,0.300,1301.000,0.500,1264.000,1.000,508.000,5.000,0
"03/03/08","19:14:34",56108.000,"cc",28338.883,1,0.100,49525.000,0.200,3851.000,0.300,1125.000,0.500,1166.000,1.000,441.000,5.000,0
"03/03/08","19:14:40",54541.000,"cc",28300.736,1,0.100,49002.000,0.200,3383.000,0.300,873.000,0.500,897.000,1.000,386.000,5.000,0
"03/03/08","19:14:46",53938.000,"cc",28272.647,1,0.100,48818.000,0.200,3198.000,0.300,776.000,0.500,795.000,1.000,351.000,5.000,0
"03/03/08","19:14:52",55994.000,"cc",28376.443,1,0.100,50350.000,0.200,3534.000,0.300,876.000,0.500,854.000,1.000,380.000,5.000,0
"03/03/08","19:14:58",55667.000,"cc",28344.248,1,0.100,49040.000,0.200,3786.000,0.300,1193.000,0.500,1179.000,1.000,469.000,5.000,0
"03/03/08","19:15:04",54536.000,"cc",28273.922,1,0.100,48229.000,0.200,3592.000,0.300,1158.000,0.500,1149.000,1.000,408.000,5.000,0
"03/03/08","19:15:10",55277.000,"cc",28283.676,1,0.100,48895.000,0.200,3707.000,0.300,1112.000,0.500,1101.000,1.000,462.000,5.000,0
"03/03/08","19:15:16",61164.000,"cc",28274.332,1,0.100,54111.000,0.200,4318.000,0.300,1189.000,0.500,1090.000,1.000,456.000,5.000,0
"03/03/08","19:15:22",61843.000,"cc",28355.104,1,0.100,54909.000,0.200,4348.000,0.300,1090.000,0.500,1065.000,1.000,431.000,5.000,0
"03/03/08","19:15:28",59544.000,"cc",28366.580,1,0.100,53059.000,0.200,4064.000,0.300,1031.000,0.500,987.000,1.000,403.000,5.000,0
"03/03/08","19:15:34",56825.000,"cc",28339.889,1,0.100,50917.000,0.200,3687.000,0.300,851.000,0.500,972.000,1.000,398.000,5.000,0
"03/03/08","19:15:40",54153.000,"cc",28326.602,1,0.100,48843.000,0.200,3281.000,0.300,823.000,0.500,830.000,1.000,376.000,5.000,0
"03/03/08","19:15:46",53370.000,"cc",28326.432,1,0.100,48168.000,0.200,3145.000,0.300,796.000,0.500,895.000,1.000,366.000,5.000,0
"03/03/08","19:15:52",53920.000,"cc",28318.629,1,0.100,48238.000,0.200,3412.000,0.300,936.000,0.500,920.000,1.000,414.000,5.000,0
"03/03/08","19:15:58",55136.000,"cc",28287.584,1,0.100,48962.000,0.200,3677.000,0.300,1048.000,0.500,1021.000,1.000,428.000,5.000,0
"03/03/08","19:16:04",54996.000,"cc",28307.543,1,0.100,49124.000,0.200,3493.000,0.300,946.000,0.500,1026.000,1.000,407.000,5.000,0
"03/03/08","19:16:10",58476.000,"cc",28287.979,1,0.100,52434.000,0.200,3897.000,0.300,891.000,0.500,870.000,1.000,384.000,5.000,0
"03/03/08","19:16:16",54678.000,"cc",28322.563,1,0.100,48795.000,0.200,3511.000,0.300,972.000,0.500,1012.000,1.000,388.000,5.000,0
"03/03/08","19:16:22",55646.000,"cc",28372.920,1,0.100,49351.000,0.200,3708.000,0.300,1060.000,0.500,1067.000,1.000,460.000,5.000,0
"03/03/08","19:16:28",54390.000,"cc",28335.602,1,0.100,48630.000,0.200,3521.000,0.300,883.000,0.500,987.000,1.000,369.000,5.000,0
"03/03/08","19:16:34",56007.000,"cc",28280.211,1,0.100,49240.000,0.200,3881.000,0.300,1264.000,0.500,1179.000,1.000,443.000,5.000,0
"03/03/08","19:16:40",58036.000,"cc",28315.332,1,0.100,51563.000,0.200,3982.000,0.300,1070.000,0.500,1052.000,1.000,369.000,5.000,0
"03/03/08","19:16:46",58216.000,"cc",28340.293,1,0.100,50341.000,0.200,4464.000,0.300,1535.000,0.500,1335.000,1.000,541.000,5.000,0
"03/03/08","19:16:52",59350.000,"cc",28293.621,1,0.100,50697.000,0.200,4759.000,0.300,1722.000,0.500,1592.000,1.000,580.000,5.000,0
"03/03/08","19:16:58",56558.000,"cc",28311.143,1,0.100,49208.000,0.200,4089.000,0.300,1453.000,0.500,1279.000,1.000,529.000,5.000,0
"03/03/08","19:17:04",58498.000,"cc",28267.117,1,0.100,51006.000,0.200,4384.000,0.300,1364.000,0.500,1279.000,1.000,465.000,5.000,0
"03/03/08","19:17:10",59559.000,"cc",28303.309,1,0.100,51798.000,0.200,4368.000,0.300,1476.000,0.500,1367.000,1.000,550.000,5.000,0